Other Surface Observations
Issued by NWS

Home | Current Version | Previous Version | Text Only | Print | Product List | Glossary On
Versions: 1 2 3 4 5 6 7 8 9 10 11 12 13 14 15 16 17 18 19 20 21 22 23 24 25 26 27 28 29 30 31 32 33 34 35 36 37 38 39 40 41 42 43 44 45 46 47 48 49 50
079
SXUS52 KTAE 241118
OSOTAE
OSOTAE
North Florida/South Alabama/Southwest Georgia Weather Roundup
National Weather Service Tallahassee Florida
700 AM EDT TUE MAY 24 2016

Note: "fair" indicates few or no clouds below 12,000 feet with no
significant weather and/or obstructions to visibility.

!FLZ017-115-028-034-025-241200
...North Florida...

CITY           SKY/WX    TMP DP  RH WIND       PRES   REMARKS
TALLAHASSEE    PTCLDY    62  57  83 CALM      30.06R
APALACHICOLA   CLEAR     61  60  97 CALM      30.05R
PERRY          CLEAR     60  58  96 CALM      30.07R
CROSS CITY       N/A     59  55  87 CALM      30.05R
JACKSONVILLE   PTCLDY    61  59  93 CALM      30.07R
$$

!FLZ112-006-005-002-011-241200
...Florida Panhandle...

CITY           SKY/WX    TMP DP  RH WIND       PRES   REMARKS
MARIANNA       CLOUDY    60  59  96 CALM      30.07R
BONIFAY        FAIR      58  56  93 CALM      30.08R
PANAMA CITY NW FAIR      57  55  93 NW3       30.05R
TYNDALL AFB    CLEAR     62  61  97 CALM      30.06R
TYND DRONE APT FAIR      63  63 100 CALM      30.06R
DE FUNIAK SPR  FAIR      62  56  83 CALM      30.08R
EGLIN AFB      PTCLDY    60  56  84 CALM      30.06R
DESTIN         PTCLDY    69  65  86 CALM      30.07R
HURLBURT       PTCLDY    60  57  90 N6        30.05R
CRESTVIEW      CLEAR     55  54  96 CALM      30.09R
PENSACOLA      CLEAR     64  59  83 N5        30.06R
$$

!ALZ063-066-241200
...South Alabama...

CITY           SKY/WX    TMP DP  RH WIND       PRES   REMARKS
DOTHAN         CLEAR     61  58  90 CALM      30.11R
OZARK CAIRNS   CLOUDY    60  58  94 CALM      30.07R
FT RUCKER HELI CLEAR     57  54  89 CALM      30.07R
RUCKER HELI 3  FAIR      59  58  98 N2        30.09R
RUCKER HELI 2  NOT AVBL
FLORALA APT    CLEAR     58  55  90 CALM      30.09R
ANDALUSIA      PTCLDY    62  57  83 CALM      30.07R HAZE
TROY           CLEAR     57  55  93 CALM      30.09R
EUFALA         FAIR      56  53  90 CALM      30.08R FOG
MOBILE         PTCLDY    60  60 100 CALM      30.07R
$$

!GAZ120>161-241200
...Southwest and South Central Georgia...

CITY           SKY/WX    TMP DP  RH WIND       PRES   REMARKS
THOMASVILLE    FAIR      57  55  94 CALM      30.08R
BAINBRIDGE     PTCLDY    59  57  94 E3        30.08R
MOODY AFB      PTCLDY    61  55  80 CALM      30.07R
VALDOSTA       PTCLDY    58  57  97 CALM      30.07R
MOULTRIE       CLEAR     59  55  88 CALM      30.09R
BLAKELY        CLEAR     59  57  94 CALM      30.08R
ALBANY         CLEAR     57  54  89 CALM      30.10R
TIFTON         FAIR      57  57 100 CALM      30.08R
FITZGERALD     FAIR      61  60  96 CALM      30.11R
CORDELE        PTSUNNY   60  59  95 CALM      30.10R
AMERICUS       FAIR      55  55 100 CALM      30.10R
HOMERVILLE     MOCLDY    61  59  94 CALM      30.08R
$$

!GMZ750-755-770-775-241200
...Coastal and Buoy Obs...

STATION/POSITION TIME  TEMP    WIND        PRES    VSBY  WAVE
                       AIR SEA DIR/SP/G                  HT/PER
                 (UTC) (F)     (DEG/KT/KT) (MB)    (MI)  (FT/S)
KEATON BEACH     1100   64      40/  3/  4 1017.4R
CEDAR KEY        1100   77     180/  6/  7 1017.5R
C TOWER          1100   74     340/ 10/ 10 1018.2R
APALACHICOLA BUO 1050   76 78   80/  2/  4 1017.2R         0
PANAMA CITY BUOY 1050   77 80   90/  2/  4 1017.6R         1
MOBILE BUOY      1100   76 77  120/  6/  8 1016.9R
ORANGE BCH AL BU 1050   76 78  160/  6/  6 1016.8R         1
$$




USA.gov is the U.S. government's official web portal to all federal, state and local government web resources and services.